Regional Weather Roundup
Issued by NWS

Home | Current Version | Previous Version | Graphics & Text | Print | Product List | Glossary Off
Versions: 1 2 3 4 5 6 7 8 9 10 11 12 13 14 15 16 17 18 19 20 21 22 23 24 25 26 27 28 29 30 31 32 33 34 35 36 37 38 39 40 41 42 43 44 45 46 47 48 49 50

000
ASUS43 KLSX 222207
RWRMO

WEATHER SUMMARY FOR MISSOURI
NATIONAL WEATHER SERVICE SPRINGFIELD MO
400 PM CST MON DEC 22 2014

NOTE: "FAIR" INDICATES FEW OR NO CLOUDS BELOW 12,000 FEET WITH NO
       SIGNIFICANT WEATHER AND/OR OBSTRUCTIONS TO VISIBILITY.
       CURRENT SKY AND/OR WEATHER CONDITIONS ARE NOT AVAILABLE FOR
       CHILLICOTHE AND FARMINGTON.

MOZ001>031-035>038-043-044-053-054-222300-
...NORTHERN AND WESTERN MISSOURI...

CITY           SKY/WX    TMP DP  RH WIND       PRES   REMARKS
KANSAS CTY INT LGT RAIN  46  45  96 W7        29.43S
KANSAS C DTWN  CLOUDY    48  45  89 SW3       29.44R
LEE`S SUMMIT   CLOUDY    46  44  93 SW7       29.45R
ST JOSEPH      CLOUDY    46  43  89 W15G23    29.42S
CHILLICOTHE      N/A     45  43  93 SE6       29.46F
KIRKSVILLE     LGT RAIN  43  43 100 SE8       29.48F FOG

$$
MOZ066>068-077>081-088>096-101>105-222300-
...SOUTHWEST MISSOURI...

CITY           SKY/WX    TMP DP  RH WIND       PRES   REMARKS
SPRINGFIELD    LGT RAIN  49  47  93 S10       29.48S FOG
JOPLIN         LGT RAIN  49  47  93 W12       29.51R FOG

$$
MOZ032>034-039>042-045>050-055>058-069>072-222300-
...CENTRAL MISSOURI...

CITY           SKY/WX    TMP DP  RH WIND       PRES   REMARKS
COLUMBIA       LGT RAIN  47  46  97 S10       29.49R FOG
JEFFERSON CITY CLOUDY    49  46  90 SE6       29.50S
ROLLA          LGT RAIN  47  45  93 S6        29.49F FOG
SEDALIA        LGT RAIN  48  46  93 S8        29.47S FOG
WHITEMAN AFB   LGT RAIN  46  45  96 S7        29.45S FOG
WARRENSBURG    LGT RAIN  45  43  93 S6        29.45S
OSAGE BEACH    CLOUDY    48  45  87 S7        29.48F

$$
MOZ051-052-059>065-222300-
...EAST CENTRAL MISSOURI...

CITY           SKY/WX    TMP DP  RH WIND       PRES   REMARKS
ST LOUIS INTL  LGT RAIN  50  46  87 SE8       29.56S FOG
SPIRIT OF STL  LGT RAIN  48  46  93 CALM      29.54F FOG
ST CHARLES     LGT RAIN  47  46  97 E6        29.55F FOG

$$
MOZ072>076-082>087-097>100-106>115-222300-
...SOUTH CENTRAL AND SOUTHEAST MISSOURI...

CITY           SKY/WX    TMP DP  RH WIND       PRES   REMARKS
CAPE GIRARDEAU LGT RAIN  52  51  97 S8        29.59S FOG
FARMINGTON     CLOUDY    48  46  93 SE9       29.56F
POPLAR BLUFF   CLOUDY    53  50  89 S10       29.57F
WEST PLAINS    CLOUDY    49  47  93 S8        29.53S FOG

$$



USA.gov is the U.S. government's official web portal to all federal, state and local government web resources and services.